Regional Weather Roundup
Issued by NWS

Home | Current Version | Previous Version | Text Only | Print | Product List | Glossary On
Versions: 1 2 3 4 5 6 7 8 9 10 11 12 13 14 15 16 17 18 19 20 21 22 23 24 25 26 27 28 29 30 31 32 33 34 35 36 37 38 39 40 41 42 43 44 45 46 47 48 49 50
000
ASUS44 KBMX 171410
RWRAL

ALABAMA REGIONAL WEATHER ROUNDUP
NATIONAL WEATHER SERVICE BIRMINGHAM AL
900 AM CDT THU AUG 17 2017

NOTE: "FAIR" INDICATES FEW OR NO CLOUDS BELOW 12,000 FEET
WITH NO SIGNIFICANT WEATHER AND/OR OBSTRUCTIONS TO VISIBILITY.

THE REMARK "TC" DENOTES TEMPERATURE IN DEGREES CELSIUS.

ALZ001>011-014-016>018-020-171500-
NORTH ALABAMA

CITY           SKY/WX    TMP DP  RH WIND       PRES   REMARKS
MUSCLE SHOALS  CLOUDY    79  74  84 SW10      30.07S
HUNTSVILLE     PTSUNNY   81  76  84 SW8       30.09R
DECATUR        CLOUDY    78  75  90 SW5       30.08R
HALEYVILLE     CLOUDY    76  74  93 SW8       30.12S
GADSDEN        SUNNY     81  74  79 SW3       30.11S
$$

ALZ012-013-022-023-030>036-040>044-171500-
WEST CENTRAL ALABAMA

CITY           SKY/WX    TMP DP  RH WIND       PRES   REMARKS
TUSCALOOSA     MOSUNNY   79  75  87 SW5       30.10R
DEMOPOLIS        N/A     77  73  88 S5        30.10R
$$

ALZ015-024>026-033>036-041>044-171500-
CENTRAL ALABAMA

CITY           SKY/WX    TMP DP  RH WIND       PRES   REMARKS
BIRMINGHAM     MOSUNNY   82  72  71 W8        30.13S
MONTGOMERY     SUNNY     83  72  69 NW6       30.11S
SHELBY CO ARPT SUNNY     81  75  82 VRB5      30.11S
MAXWELL AFB    SUNNY     81  74  79 CALM      30.10S
GREENVILLE     FAIR      82  70  66 W5        30.11S
SELMA          FAIR      81  72  74 VRB5      30.11R
PRATTVILLE     FAIR      79  74  85 CALM      30.10S
BESSEMER       FAIR      79  74  84 W7        30.13R
TALLADEGA      FAIR      81  74  79 MISG      30.12R
PELL CITY      SUNNY     81  75  83 CALM      30.12R
MARION         FAIR      78  73  83 CALM      30.10S
SYLACAUGA      FAIR      80  78  94 CALM      30.12S
$$

ALZ019-021-028-029-037-038-045>048-171500-
EAST CENTRAL ALABAMA

CITY           SKY/WX    TMP DP  RH WIND       PRES   REMARKS
ANNISTON       MOSUNNY   80  74  81 W8        30.12R
ALEXANDER CITY MOSUNNY   79  72  80 NW7       30.13S
AUBURN         SUNNY     80  73  79 W8        30.13S
$$

ALZ051>064-171500-
SOUTHWEST ALABAMA

CITY           SKY/WX    TMP DP  RH WIND       PRES   REMARKS
MOBILE         MOSUNNY   84  75  74 VRB3      30.11S HX  92
BROOKLEY FIELD MOSUNNY   86  79  79 W6        30.11S HX  99
EVERGREEN      SUNNY     83  75  77 CALM      30.12R HX  90
$$

ALZ049-050-065>069-171500-
SOUTHEAST ALABAMA

CITY           SKY/WX    TMP DP  RH WIND       PRES   REMARKS
DOTHAN         SUNNY     84  76  76 W7        30.15R HX  93
OZARK          SUNNY     83  75  76 NW5       30.11S HX  90
TROY           SUNNY     82  74  76 W6        30.12S
EUFAULA        FAIR      85  76  74 VRB5      30.10S HX  94
$$



USA.gov is the U.S. government's official web portal to all federal, state and local government web resources and services.